This demonstration page uses our WeatherBlox Daily Observations layout. Learn more.

38.89511, -77.03637

Hourly Observations for February 15, 2015

Temp ( °F °C ) Dew Point ( °F °C ) Humidity (%) Winds ( mph kmh ) Pressure ( in mb ) Visibility ( mi km ) Precip ( " mm )
12:52 am 00:52 Mostly Clear 16 -8.9 -7 -21.7 35 35 NNW 31 50 29.88 1012 10 16.0934 0 0
1:52 am 01:52 Mostly Clear 15 -9.4 -8 -22.2 35 35 NW 18 30 29.92 1013 10 16.0934 0 0
2:52 am 02:52 Partly Cloudy 14 -10 -9 -22.8 35 35 NW 30 48 29.94 1014 10 16.0934 0 0
3:52 am 03:52 Partly Cloudy 14 -10 -10 -23.3 33 33 WNW 30 48 29.95 1014 10 16.0934 0 0
4:52 am 04:52 Cloudy 13 -10.6 -9 -22.8 36 36 WNW 23 37 29.98 1015 10 16.0934 0 0
5:52 am 05:52 Partly Cloudy 12 -11.1 -9 -22.8 38 38 NW 22 35 30.02 1017 10 16.0934 0 0
6:52 am 06:52 Mostly Clear 11 -11.7 -11 -23.9 36 36 NW 26 43 30.04 1017 10 16.0934 0 0
7:52 am 07:52 Mostly Sunny 11 -11.7 -11 -23.9 36 36 NW 18 30 30.09 1019 10 16.0934 0 0
8:52 am 08:52 Mostly Sunny 13 -10.6 -10 -23.3 35 35 NW 23 37 30.12 1020 10 16.0934 0 0
9:52 am 09:52 Mostly Sunny 14 -10 -10 -23.3 33 33 WNW 29 46 30.13 1020 10 16.0934 0 0
10:52 am 10:52 Sunny 17 -8.3 -8 -22.2 32 32 WNW 21 33 30.16 1021 10 16.0934 0 0
11:52 am 11:52 Sunny 19 -7.2 -8 -22.2 29 29 NW 25 41 30.16 1021 10 16.0934 0 0
12:52 pm 12:52 Sunny 20 -6.7 -8 -22.2 28 28 NW 23 37 30.16 1021 10 16.0934 0 0
1:52 pm 13:52 Sunny 20 -6.7 -9 -22.8 27 27 NW 24 39 30.16 1021 10 16.0934 0 0
2:52 pm 14:52 Sunny 22 -5.6 -8 -22.2 26 26 NW 17 28 30.16 1022 10 16.0934 0 0
3:52 pm 15:52 Mostly Sunny 22 -5.6 -8 -22.2 26 26 NNW 24 39 30.2 1023 10 16.0934 0 0
4:52 pm 16:52 Sunny 20 -6.7 -8 -22.2 28 28 NNW 18 30 30.24 1024 10 16.0934 0 0
5:52 pm 17:52 Clear 19 -7.2 -8 -22.2 29 29 NW 13 20 30.27 1025 10 16.0934 0 0
6:52 pm 18:52 Clear 18 -7.8 -8 -22.2 31 31 NW 15 24 30.29 1026 10 16.0934 0 0
7:52 pm 19:52 Clear 17 -8.3 -8 -22.2 32 32 NW 18 30 30.32 1027 10 16.0934 0 0
8:52 pm 20:52 Clear 15 -9.4 -9 -22.8 33 33 NW 18 30 30.32 1027 10 16.0934 0 0
9:52 pm 21:52 Clear 14 -10 -9 -22.8 35 35 WNW 16 26 30.34 1028 10 16.0934 0 0
10:52 pm 22:52 Clear 13 -10.6 -9 -22.8 36 36 NW 18 30 30.34 1027 10 16.0934 0 0
11:52 pm 23:52 Clear 13 -10.6 -10 -23.3 35 35 WNW 20 31 30.35 1028 10 16.0934 0 0

Powered by AerisWeather